DELTA 1 DEB, 3975

Orbit data source: Space-Track

DELTA 1 DEB, 3975 is space debris in SSO originally from a launch on Fri, 16 Aug 1968 UTC launched from the Air Force Western Test Range (AFWTR). Debris objects in space refer to the collection of defunct objects orbiting the Earth. Examples of debris include non-operational satellites, rocket bodies, and fragments generated from explosions, collisions, or faulty payload assembly.

Loading next visibility...
Identifier
3975, 1968-069F
Orbit
SSO
Country
Flag of USUS
Related business
Manufacturer
Unknown
Mission
Spacecraft
Bus & Motor
Unknown
Mass
Unknown
Launch date (UTC)
1968-08-16 (57 years ago)
Launch vehicle
Unknown
Launch site
Air Force Western Test Range (AFWTR)
Object type
Payload
Rocket body
Debris
Shape & HBR
Unknown shape, 0.1 m
Radar Cross Section
Small (<0.1 m²)

Expand to show TLE details & history
Last TLE update: 1 day ago

TLE from 1 day ago
0 DELTA 1 DEB
1 03975U 68069F   26035.69930688 -.00000021  00000-0  13818-3 0  9996
2 03975 101.5490  97.3861 0043268  63.5562  60.2255 12.53550974631405
Epoch: 2026-02-04T16:47Z
TLE epoch observation values (Epoch: 2026-02-04T16:47:00.114Z)
Latitude
54.21113°
Longitude
-92.84401°
Altitude
1,441.691 km
Speed
7.154 km/s
True Right ascension
19h 35m 04s
True Declination
54° 03' 44"
Sunlit
Object was in daylight at epoch
Visualization orbit readout
Latitude
Unknown
Longitude
Unknown
Altitude
Unknown
Speed
Unknown
Apparent Right ascension
Unknown
Apparent Declination
Unknown
Sunlit
N/A
Visualization observer readout
Local Sidereal Time
19:31:08
Azimuth
Unknown
Elevation
Unknown
Doppler factor
Unknown
Orbital elements
Apogee altitude
1,481.066 km
Perigee altitude
1,413.349 km
Semi-major axis
7,825.345 km
Eccentricity
0.00433
Inclination
101.549°
RAAN
97.3861°
Arg. of periapsis
63.5562°
True anomaly
60.65702°
Mean anomaly
60.2255°
Eccentric anomaly
60.44114°
Mean motion
3.13536 °/min
Orbital period
114.82 mins
BSTAR
0.00013818
Loading maneuver chart data...
Computing Atmospheric mass density...
Loading historical data...
Loading historical data...
Loading historical data...
Loading historical data...
Loading historical data...
Loading historical data...
Loading historical data...

Documentation

Showing up to 5 results
|